Miami, FL

7:28 AM EST on December 12, 2017 (GMT -0500)
Miami International

Weather History for KMIA - March, 2014

Change the Weather History Date:

Saturday, March 15, 2014

  Actual Average Record
Temperature  
Mean Temperature 72 °F 72 °F  
Max Temperature 80 °F 80 °F 90 °F (2008)
Min Temperature 64 °F 65 °F 44 °F (1993)
Degree Days  
Heating Degree Days 0 0  
Month to date heating degree days 0 8  
Since 1 July heating degree days 61 124  
Cooling Degree Days 7 8  
Month to date cooling degree days 117 112  
Year to date cooling degree days 538 434  
Growing Degree Days 22 (Base 50)    
Moisture  
Dew Point 57 °F    
Average Humidity 55    
Maximum Humidity 73    
Minimum Humidity 37    
Precipitation  
Precipitation 0.00 in 0.09 in 2.30 in (2012)
Month to date precipitation 0.49 1.32  
Year to date precipitation 3.56 5.19  
Snow  
Snow 0.00 in - - ()
Month to date snowfall 0.0  
Since 1 July snowfall 0.0  
Snow Depth 0.00 in    
Sea Level Pressure  
Sea Level Pressure 30.11 in    
Wind  
Wind Speed 8 mph (East)    
Max Wind Speed 17 mph    
Max Gust Speed 24 mph    
Visibility 10 miles    
Events      
T = Trace of Precipitation, MM = Missing Value Source: NWS Daily Summary

Daily Weather History Graph

Daily Weather History Graph

Search for Another Location

Airport or City:

Trip Planner

Search our weather history database for the weather conditions in past years. The results will help you decide how hot, cold, wet, or windy it might be!

Date:

Astronomy

Mar. 15, 2014 Rise Set
Actual Time 7:30 AM EDT 7:30 PM EDT
Civil Twilight 7:07 AM EDT 7:53 PM EDT
Nautical Twilight 6:40 AM EDT 8:19 PM EDT
Astronomical Twilight 6:14 AM EDT 8:46 PM EDT
Moon 6:48 PM EDT (3/15) 6:37 AM EDT (3/15)
Length of Visible Light 12h 45m
Length of Day
11h 59m
Waxing Gibbous, 99% of the Moon is Illuminated
Mar 15
Waxing Gibbous
Mar 16
Full
Mar 23
Last Quarter
Mar 30
New
Apr 7
First Quarter

Hourly Weather History & Observations

Time (EDT) Temp. Dew Point Humidity Pressure Visibility Wind Dir Wind Speed Gust Speed Precip Events Conditions
12:53 AM 66.9 °F 53.1 °F 61% 30.16 in 10.0 mi ESE 5.8 mph - N/A   Partly Cloudy
1:53 AM 68.0 °F 53.1 °F 59% 30.15 in 10.0 mi Calm Calm - N/A   Partly Cloudy
2:53 AM 64.9 °F 53.1 °F 65% 30.14 in 10.0 mi Calm Calm - N/A   Mostly Cloudy
3:53 AM 66.9 °F 55.0 °F 66% 30.12 in 10.0 mi North 3.5 mph - N/A   Mostly Cloudy
4:53 AM 66.9 °F 55.0 °F 66% 30.10 in 10.0 mi North 4.6 mph - N/A   Scattered Clouds
5:53 AM 66.0 °F 55.9 °F 70% 30.11 in 10.0 mi North 5.8 mph - N/A   Scattered Clouds
6:53 AM 66.0 °F 55.9 °F 70% 30.12 in 10.0 mi North 5.8 mph - N/A   Mostly Cloudy
7:53 AM 66.0 °F 57.0 °F 73% 30.12 in 10.0 mi NNE 3.5 mph - N/A   Mostly Cloudy
8:53 AM 70.0 °F 59.0 °F 68% 30.13 in 10.0 mi Calm Calm - N/A   Mostly Cloudy
9:53 AM 75.0 °F 57.0 °F 53% 30.14 in 10.0 mi East 11.5 mph - N/A   Scattered Clouds
10:53 AM 77.0 °F 55.0 °F 47% 30.14 in 10.0 mi ESE 15.0 mph - N/A   Partly Cloudy
11:53 AM 78.1 °F 50.0 °F 37% 30.16 in 10.0 mi SE 11.5 mph - N/A   Scattered Clouds
12:53 PM 75.9 °F 55.9 °F 50% 30.14 in 10.0 mi SE 10.4 mph - N/A   Scattered Clouds
1:53 PM 79.0 °F 55.9 °F 45% 30.11 in 10.0 mi ESE 13.8 mph 23.0 mph N/A   Scattered Clouds
2:53 PM 78.1 °F 55.0 °F 45% 30.09 in 10.0 mi SE 11.5 mph - N/A   Scattered Clouds
3:53 PM 75.9 °F 55.9 °F 50% 30.08 in 10.0 mi SE 12.7 mph 20.7 mph N/A   Mostly Cloudy
4:53 PM 78.1 °F 57.9 °F 50% 30.07 in 10.0 mi ESE 9.2 mph - N/A   Scattered Clouds
5:53 PM 75.9 °F 57.0 °F 52% 30.07 in 10.0 mi ESE 8.1 mph 17.3 mph N/A   Scattered Clouds
6:53 PM 73.9 °F 59.0 °F 59% 30.07 in 10.0 mi East 10.4 mph - N/A   Scattered Clouds
7:53 PM 73.0 °F 60.1 °F 64% 30.08 in 10.0 mi East 10.4 mph - N/A   Partly Cloudy
8:53 PM 72.0 °F 59.0 °F 64% 30.07 in 10.0 mi ESE 10.4 mph - N/A   Partly Cloudy
9:53 PM 72.0 °F 59.0 °F 64% 30.08 in 10.0 mi East 8.1 mph - N/A   Clear
10:53 PM 72.0 °F 60.1 °F 66% 30.08 in 10.0 mi East 8.1 mph - N/A   Partly Cloudy
11:53 PM 72.0 °F 60.1 °F 66% 30.06 in 10.0 mi ESE 10.4 mph - N/A   Partly Cloudy